Regional Weather Roundup
Issued by NWS Cleveland, OH

Home | Current Version | Previous Version | Text Only | Print | Product List | Glossary Off
Versions: 1 2 3 4 5 6 7 8 9 10 11 12 13 14 15 16 17 18 19 20 21 22 23 24 25 26 27 28 29 30 31 32 33 34 35 36 37 38 39 40 41 42 43 44 45 46 47 48 49 50

000
ASUS41 KCLE 250610
RWRCLE
OHIO REGIONAL WEATHER ROUNDUP
NATIONAL WEATHER SERVICE WILMINGTON, OH
200 AM EDT THU AUG 25 2016

NOTE: "FAIR" INDICATES FEW OR NO CLOUDS BELOW 12,000 FEET WITH NO
SIGNIFICANT WEATHER AND/OR OBSTRUCTIONS TO VISIBILITY.

OHZ001>008-015>018-024>027-034-035-043-044-250700-
   NORTHWEST OHIO

CITY           SKY/WX    TMP DP  RH WIND       PRES   REMARKS
DEFIANCE       MOCLDY    73  70  90 SW3       30.00S
FINDLAY        FAIR      75  70  84 W8        30.00R
TOLEDO EXPRESS FAIR      72  72 100 W12       29.97F
TOLEDO EXEC    FAIR      74  74 100 W10G20    29.98S
LIMA           FAIR      73  73 100 SW7       30.03R
$$

OHZ009>014-019>023-028>033-038-089-250700-
   NORTHEAST OHIO

CITY           SKY/WX    TMP DP  RH WIND       PRES   REMARKS
CLE-HOPKINS    CLOUDY    75  70  84 SW10      29.99F
CLE-LAKEFRONT  FAIR      74  70  87 S12       29.95F
CUY CO. ARPT   NOT AVBL
LORAIN-ELYRIA  MOCLDY    73  70  90 W9        29.98F
ASHTABULA      CLOUDY    76  68  76 S12G18    29.99F
AKRON-CANTON   TSTM      75  69  81 SW10      30.02S
WOOSTER        LGT RAIN  72  71  97 SW12      30.02F
MANSFIELD      MOCLDY    73  72  96 W5        30.03S
YOUNGSTOWN     CLOUDY    76  67  73 S10       30.02F
$$

OHZ042-051>053-060>062-070>072-077>081-250700-
  SOUTHWEST OHIO

CITY           SKY/WX    TMP DP  RH WIND       PRES   REMARKS
CINC-COVINGTON FAIR      77  73  87 SW6       30.07F
CINC-LUNKEN    FAIR      77  73  87 SW8       30.07S
HAMILTON       FAIR      79  72  79 SW6       30.06S
DAYTON         MOCLDY    71  69  93 CALM      30.07R
WRIGHT-PAT AFB MOCLDY    77  74  91 SW3       30.05S
DAYTON GENERAL FAIR      79  72  79 SW10      30.06R
WILMINGTON     FAIR      76  72  87 SW12      30.07S
$$

OHZ036-037-039>041-045>050-054>059-063>069-073>076-082>088-250700-
  CENTRAL AND SOUTHEAST OHIO

CITY           SKY/WX    TMP DP  RH WIND       PRES   REMARKS
COLUMBUS       TSTM      71  69  93 W9        30.06R FOG
OSU AIRPORT    MOCLDY    72  70  93 SW9       30.05F
BOLTON FIELD   TSTM      72  71  96 W6        30.07F
RICKENBACK AFB CLOUDY    76  71  85 NE13      30.04S THUNDER
NEWARK         LGT RAIN  76  72  87 SW8       30.03F
MARION         FAIR      74  72  93 SW10      30.04R
LANCASTER      MOCLDY    78  71  79 SW8       30.06S
ZANESVILLE     MOCLDY    76  70  82 S9        30.05F
NEW PHILLY     FAIR      79  68  69 S7        30.03F
$$




USA.gov is the U.S. government's official web portal to all federal, state and local government web resources and services.